Regional Weather Roundup
Issued by NWS

Home | Current Version | Previous Version | Graphics & Text | Print | Product List | Glossary On
Versions: 1 2 3 4 5 6 7 8 9 10 11 12 13 14 15 16 17 18 19 20 21 22 23 24 25 26 27 28 29 30 31 32 33 34 35 36 37 38 39 40 41 42 43 44 45 46 47 48 49 50
000
ASUS43 KOAX 192010
RWRNE

WEATHER ROUNDUP FOR NEBRASKA
NATIONAL WEATHER SERVICE OMAHA NE
300 PM CDT TUE SEP 19 2017

NOTES: SATELLITE DATA IS BEING USED TO AUGMENT CLOUD COVER ABOVE
       12000 FEET.
       "FAIR" INDICATES FEW OR NO CLOUDS BELOW 12,000 FEET WITH NO
       SIGNIFICANT WEATHER AND/OR OBSTRUCTIONS TO VISIBILITY.


NEZ001>004-019>022-054>056-192100-
NEBRASKA PANHANDLE

CITY           SKY/WX    TMP DP  RH WIND       PRES   REMARKS
SCOTTSBLUFF    CLOUDY    78  48  34 SE10      29.54F
ALLIANCE       CLOUDY    81  45  28 S10       29.55F
CHADRON        CLOUDY    81  36  19 VRB5      29.52S
GORDON         FAIR      75  51  43 SW7       29.54F
KIMBALL        CLOUDY    85  31  14 SW12G18   29.61F
SIDNEY         CLOUDY    81  34  18 SW10      29.59F
$$

NEZ057>060-069>072-079>082-192100-
SOUTHWEST NEBRASKA

CITY           SKY/WX    TMP DP  RH WIND       PRES   REMARKS
NORTH PLATTE   CLOUDY    87  59  38 SE7       29.52F
IMPERIAL       CLOUDY    88  40  18 E6        29.53F
LEXINGTON      CLOUDY    90  57  31 S17G24    29.53F
MCCOOK         CLOUDY    92  48  22 S21G29    29.53F
OGALLALA       CLOUDY    85  39  19 S8        29.54F
$$

NEZ005>010-023>029-035>040-094-192100-
NORTH CENTRAL NEBRASKA

CITY           SKY/WX    TMP DP  RH WIND       PRES   REMARKS
VALENTINE      CLOUDY    81  62  52 S14       29.50F
AINSWORTH      CLOUDY    79  65  62 S17G23    29.52F
BROKEN BOW     CLOUDY    83  63  50 SE16G29   29.53F
O`NEILL        CLOUDY    83  68  60 SE28      29.53F
ORD            CLOUDY    83  63  50 SE17G26   29.52F
THEDFORD       CLOUDY    82  60  46 S16G24    29.53F
$$

NEZ041-046>049-061>064-073>077-083>087-192100-
SOUTH CENTRAL NEBRASKA

CITY           SKY/WX    TMP DP  RH WIND       PRES   REMARKS
GRAND ISLAND   SUNNY     86  68  54 SE18G29   29.57F
AURORA         SUNNY     87  65  47 S18G29    29.58F
HASTINGS       SUNNY     90  63  40 S17G26    29.57F HX  91
HEBRON         SUNNY     92  65  41 S18G29    29.59F HX  94
HOLDREGE       CLOUDY    89  57  33 S22       29.55F
KEARNEY        CLOUDY    89  64  43 S24G30    29.55F HX  90
YORK           SUNNY     88  66  48 S16G28    29.58F HX  90
$$

NEZ011>018-030>034-042>045-192100-
NORTHEAST NEBRASKA

CITY           SKY/WX    TMP DP  RH WIND       PRES   REMARKS
NORFOLK        CLOUDY    82  68  62 SE29G38   29.57F
ALBION         CLOUDY    85  69  58 SE24G31   29.56F
BLAIR          SUNNY     86  69  55 SE15G28   29.64F HX  90
COLUMBUS       SUNNY     88  68  51 SE22G28   29.59F HX  91
FREMONT        SUNNY     86  67  53 SE18G30   29.62F
TEKAMAH        SUNNY     86  68  54 SE20G30   29.62F
WAYNE          CLOUDY    82  70  66 SE25G31   29.59F
$$

NEZ050>053-065>068-078-088>093-192100-
SOUTHEAST NEBRASKA

CITY           SKY/WX    TMP DP  RH WIND       PRES   REMARKS
LINCOLN        SUNNY     91  67  44 SE25G35   29.61F HX  94
OMAHA EPPLEY   MOSUNNY   88  67  49 SE28G36   29.64F HX  91
BEATRICE       SUNNY     91  68  46 S21G26    29.63F HX  95
FALLS CITY     SUNNY     88  68  51 SE24G32   29.68F HX  91
NEBRASKA CITY  SUNNY     88  69  52 S18G30    29.67F HX  92
PLATTSMOUTH    SUNNY     88  67  50 SE21G30   29.65F HX  91
$$

NEZ044-045-051>053-067-192100-
OMAHA AREA

CITY           SKY/WX    TMP DP  RH WIND       PRES   REMARKS
OMAHA EPPLEY   MOSUNNY   88  67  49 SE28G36   29.64F HX  91
BLAIR          SUNNY     86  69  55 SE15G28   29.64F HX  90
FREMONT        SUNNY     86  67  53 SE18G30   29.62F
MILLARD        SUNNY     89  69  52 SE23G31   29.64F HX  94
OFFUTT AFB     SUNNY     89  67  48 SE29      29.64F HX  91
PLATTSMOUTH    SUNNY     88  67  50 SE21G30   29.65F HX  91
WAHOO          FAIR      89  66  46 SE22G30   29.62F HX  91
$$




USA.gov is the U.S. government's official web portal to all federal, state and local government web resources and services.